Location: Ettringen
(48.1054°N, 10.6545°E)
Time: 07:24:32
(UTC+00:00)

ATLAS 5 CENTAUR R/B - Pass Details

Date: 18 November 2025
Orbit: 373 x 1090 km, 63.3° (Epoch: 06 December)

Event Time Altitude Azimuth Distance (km) Brightness Sun altitude
Rises 16:06:07 0° 317° (NW) 2,728 5.2 -5.4°
Reaches altitude 10° 16:08:08 10° 314° (NW) 1,928 4.4 -5.7°
Maximum altitude 16:12:29 66° 232° (SW) 749 2.3 -6.3°
Drops below altitude 10° 16:17:52 10° 152° (SSE) 2,386 4.5 -7.2°
Sets 16:20:36 0° 149° (SSE) 3,438 5.3 -7.6°
